Weather Roundup
Issued by NWS Springfield, MO

Home | Current Version | Previous Version | Text Only | Print | Product List | Glossary On
Versions: 1 2 3 4 5 6 7 8 9 10 11 12 13 14 15 16 17 18 19 20 21 22 23 24 25 26 27 28 29 30 31 32 33 34 35 36 37 38 39 40 41 42 43 44 45 46 47 48 49 50
000
NZUS99 KSGF 181707
HRRSGF

HOURLY WEATHER
NATIONAL WEATHER SERVICE SPRINGFIELD MO
1200 PM CDT FRI AUG 18 2017

......SGF CWA......

CITY           SKY/WX    TMP DP  RH WIND       PRES   REMARKS
SPRINGFIELD    MOSUNNY   79  73  82 S7        30.03F
JOPLIN         PTSUNNY   82  77  84 SW7       30.02F HX  90
WEST PLAINS    SUNNY     83  57  41 W6        30.06F
ROLLA          CLOUDY    81  64  56 W6        30.03S
OSAGE BEACH    CLOUDY    78  66  66 SW6       30.01F
BRANSON        PTSUNNY   81  72  74 SW5       30.06F

......SURROUNDING SGF CWA......

CITY           SKY/WX    TMP DP  RH WIND       PRES   REMARKS
CHANUTE        CLOUDY    81  73  76 MISG      29.99S
PARSONS        PTSUNNY   85  75  72 SW6       30.00F HX  93
COFFEYVILLE    CLOUDY    85  77  77 S10       29.97F HX  95
EMPORIA        SUNNY     81  65  58 SW8       29.98S
GROVE OK       CLOUDY    82  77  83 SW6       30.03S HX  91
ROGERS AR      PTSUNNY   85  74  69 S9        30.05F HX  92
SILOAM SPRINGS MOSUNNY   86  73  66 SW9       30.03F HX  93
HARRISON AR    PTSUNNY   82  71  69 VRB3      30.05F
NEAR YELLVILLE MOSUNNY   84  64  51 W5        30.01F

......KANSAS AND MISSOURI......

CITY           SKY/WX    TMP DP  RH WIND       PRES   REMARKS
KANSAS CTY INT CLOUDY    81  67  62 SW14      29.96S
DOWNTOWN KC    CLOUDY    80  66  62 SW7       29.96S
COLUMBIA       SUNNY     84  65  52 SW7       29.99S
SEDALIA        CLOUDY    80  68  66 SW8       30.01R
ST JOSEPH      CLOUDY    81  69  67 SW10      29.93F
ST LOUIS       MOSUNNY   84  63  49 NW7       29.98F
SPIRIT OF STL  MOSUNNY   82  64  54 S6        29.97F
KIRKSVILLE     CLOUDY    82  60  47 SE6       29.97S
WICHITA        MOSUNNY   85  66  53 CALM      29.99R
TOPEKA         SUNNY     86  66  51 S10       29.95F
OLATHE         CLOUDY    72  66  81 SW3       29.99F

......TENNESSEE......

CITY           SKY/WX    TMP DP  RH WIND       PRES   REMARKS
MEMPHIS        MOSUNNY   87  70  56 NW7       30.03F HX  92
NASHVILLE      MOSUNNY   85  65  51 W8        30.00F

......ARKANSAS.......

CITY           SKY/WX    TMP DP  RH WIND       PRES   REMARKS
FAYETTEVILLE   SUNNY     85  74  69 S9        30.04F HX  92
FT SMITH       SUNNY     88  74  63 VRB6      30.01F HX  96
LITTLE ROCK    PTSUNNY   87  73  62 CALM      30.03F HX  94

......OKLAHOMA.......

CITY           SKY/WX    TMP DP  RH WIND       PRES   REMARKS
TULSA          CLOUDY    83  76  79 NW6       29.99F HX  91
PONCA CITY     CLOUDY    80  66  62 W6        29.98F
MCALESTER      SUNNY     87  76  69 S9        30.03F HX  97
OKLAHOMA CITY  CLOUDY    86  65  49 S14       29.99F

......IOWA............

CITY           SKY/WX    TMP DP  RH WIND       PRES   REMARKS
DES MOINES     MOSUNNY   81  64  56 SW8       29.91F
QUAD CITIES    MOSUNNY   80  60  50 NW6       29.93R

......ILLINOIS........

CITY           SKY/WX    TMP DP  RH WIND       PRES   REMARKS
QUINCY         SUNNY     80  63  55 W7        29.96F
CHICAGO        PTSUNNY   75  59  57 NW16      29.88S



USA.gov is the U.S. government's official web portal to all federal, state and local government web resources and services.